Torna al catalogo

COSMOS 2491 DEB

LostPO
NORAD 44989·DEBRIS·🇷🇺 Russia

Lanciato Dec 25, 2013 da Plesetsk Cosmodrome

Loading…

Prossimi Passaggi (prossime 24 ore)

TLE

ObsoletoSource: Space-Track

Epoca: Feb 12, 2020, 01:31 UTC

1 44989U 13076K   20043.06373191  .00000010  00000-0  00000+0 0  9990
2 44989  82.4797 172.9153 0076378  20.6732 339.7598 12.56386902  5126

Traccia COSMOS 2491 DEB in tempo reale con AllMySat

Download on the App Store